Location: Gradaro
(45.0833°N, 10.8833°E)
Time: 09:40:25
(UTC+00:00)

Lacrosse 4 Rocket - Pass Details

Date: 29 November 2020
Orbit: 537 x 620 km, 68.0° (Epoch: 23 January)

Event Time Altitude Azimuth Distance (km) Brightness Sun altitude
Exits shadow 03:38:21 32° 123° (ESE) 1,043 3.1 -30.1°
Drops below altitude 10° 03:40:50 10° 137° (SE) 1,951 4.6 -29.7°
Sets 03:43:08 0° 141° (SE) 2,861 5.5 -29.3°
